Flag for United Kingdom

Past Weather in London, England, United Kingdom — Yesterday and Last 2 Weeks

Now
63 °F

Sunny.


Feels Like: 63 °F
Forecast: 75 / 54 °F
Wind: 12 mph from Northeast

Location: Northolt
Current Time: Sep 20, 2020 at 10:23:34 am
Latest Report: Sep 20, 2020 at 9:50 am
Visibility: 10 mi
Pressure30.09 "Hg
Humidity: 77%
Dew Point: 55 °F
Location of LondonLocation

Past Weather in London — Graph

°F

London Temperature Yesterday

Maximum temperature yesterday: 75 °F (at 3:50 pm)
Minimum temperature yesterday: 55 °F (at 1:50 am)
Average temperature yesterday: 64 °F

High & Low Weather Summary for the Past Weeks

 TemperatureHumidityPressure
High84 °F (Sep 14, 2:50 pm)100% (Sep 6, 1:50 am)30.39 "Hg (Sep 6, 1:50 am)
Low45 °F (Sep 11, 4:50 am)31% (Sep 14, 3:50 pm)29.98 "Hg (Sep 11, 6:50 pm)
Average62 °F72%30.16 "Hg
* Reported Sep 5 8:50 am — Sep 20 8:50 am, London. Weather by CustomWeather, © 2020

Note: Actual official high and low records may vary slightly from our data, if they occured in-between our weather recording intervals... More about our weather records

London Weather History for the Previous 24 Hours

Scroll right to see more
 ConditionsComfort  
Time TempWeatherWind HumidityBarometerVisibility
8:50 am
Sun, Sep 20
59 °FPassing clouds.10 mph88%30.09 "HgN/A
7:50 am57 °FPassing clouds.12 mph94%30.07 "HgN/A
6:50 am57 °FPassing clouds.9 mph88%30.07 "HgN/A
5:50 am57 °FClear.9 mph88%30.07 "HgN/A
4:50 am57 °FClear.8 mph88%30.07 "HgN/A
3:50 am57 °FClear.7 mph88%30.07 "HgN/A
2:50 am57 °FClear.8 mph88%30.07 "HgN/A
1:50 am57 °FClear.10 mph88%30.07 "HgN/A
12:50 am59 °FClear.9 mph82%30.07 "HgN/A
11:50 pm
Sat, Sep 19
59 °FClear.10 mph82%30.07 "HgN/A
10:50 pm61 °FPassing clouds.12 mph72%30.07 "HgN/A
9:50 pm63 °FPassing clouds.13 mph64%30.07 "HgN/A
8:50 pm66 °FOvercast.14 mph52%30.04 "HgN/A
7:50 pm68 °FPassing clouds.10 mph46%30.04 "HgN/A
6:50 pm70 °FPartly sunny.15 mph43%30.01 "HgN/A
5:50 pm73 °FSunny.17 mph36%30.01 "Hg10 mi
4:50 pm73 °FSunny.18 mph36%29.98 "Hg10 mi
3:50 pm75 °FSunny.17 mph36%29.98 "Hg10 mi
2:50 pm73 °FSunny.18 mph38%30.01 "Hg10 mi
1:50 pm73 °FSunny.17 mph41%30.01 "Hg10 mi
12:50 pm72 °FSunny.17 mph47%30.04 "Hg10 mi
11:50 am70 °FSunny.17 mph53%30.04 "Hg10 mi
10:50 am66 °FSunny.14 mph64%30.04 "Hg10 mi
Weather by CustomWeather, © 2020

See weather overview